Regional Weather Roundup
Issued by NWS Charleston, SC

Current Version | Previous Version | Graphics & Text | Print | Product List | Glossary On
Versions: 1 2 3 4 5 6 7 8 9 10 11 12 13 14 15 16 17 18 19 20 21 22 23 24 25 26 27 28 29 30 31 32 33 34 35 36 37 38 39 40 41 42 43 44 45 46 47 48 49 50
000 ASUS42 KCHS 021612 RWRCHS REGIONAL WEATHER ROUNDUP NATIONAL WEATHER SERVICE CHARLESTON SC 1100 AM EST FRI DEC 02 2016 NOTE: "FAIR" INDICATES FEW OR NO CLOUDS BELOW 12,000 FEET WITH NO SIGNIFICANT WEATHER AND/OR OBSTRUCTIONS TO VISIBILITY. NOT ALL STATIONS ARE QUALITY CONTROLLED. USE DATA WITH CAUTION... ESPECIALLY DEWPOINT OBSERVATIONS. SCZ027-030-031-034>040-042>050-021700- ...SOUTHEAST SOUTH CAROLINA... CITY SKY/WX TMP DP RH WIND PRES REMARKS N CHARLESTON MOSUNNY 57 34 41 N8 30.18S WATERFRONT PRK N/A 54 41 61 N13 30.17R MOUNT PLEASANT NOT AVBL JOHNS ISLAND FAIR 57 37 47 N10 30.18S PINOPOLIS N/A 50 37 62 NE7 30.12R MONCKS CORNER FAIR 54 32 43 N7 30.19F SUMMERVILLE FAIR 55 36 47 N9G17 30.20F BEAUFORT MCAS SUNNY 56 38 50 NE8 30.19S BEAUFORT ARPT FAIR 54 37 54 N9 30.19S HILTON HEAD IS SUNNY 55 39 54 NW12 30.19S WALTERBORO SUNNY 55 36 47 N7 30.21S ALLENDALE FAIR 55 36 47 NE6 30.20F ...SOUTHERN MIDLANDS AND PEE DEE... CITY SKY/WX TMP DP RH WIND PRES REMARKS GEORGETOWN FAIR 54 32 43 NE9 30.19S KINGSTREE FAIR 52 32 46 N8 30.20S ORANGEBURG SUNNY 54 33 45 VRB6 30.21S BARNWELL NOT AVBL AIKEN FAIR 52 32 46 E3 30.24S MANNING NOT AVBL COLUMBIA MOSUNNY 56 33 42 CALM 30.21S SUMTER SUNNY 54 31 41 E7 30.18F FLORENCE SUNNY 54 32 43 NE5 30.20S MYRTLE BEACH SUNNY 55 32 41 N12 30.19S N MYRTLE BEACH SUNNY 55 34 45 N12 30.16S $$ GAZ063-065-086>088-099>101-113>116-118-119-134>141-150-021700- ...SOUTHEAST GEORGIA... CITY SKY/WX TMP DP RH WIND PRES REMARKS SAVANNAH ARPT MOSUNNY 56 36 47 N6 30.20S HUNTER AAF SUNNY 56 41 57 NW8 30.17S FORT STEWART SUNNY 57 36 46 NW3 30.18S STATESBORO SUNNY 55 40 56 N8 30.21F SYLVANIA SUNNY N/A N/A N/A NE5 30.22S CLAXTON FAIR 56 38 52 N3 30.22S ...CSRA...CENTRAL AND FAR SOUTHEAST GEORGIA... CITY SKY/WX TMP DP RH WIND PRES REMARKS THOMSON SUNNY 54 37 51 CALM 30.27S AUGUSTA-BUSH SUNNY 56 35 45 CALM 30.22S AUGUSTA-DANIEL SUNNY 54 31 41 CALM 30.23R SWAINSBORO FAIR 54 32 43 N6 30.24R VIDALIA SUNNY 55 37 50 N7 30.23S EASTMAN FAIR 56 21 25 N3 30.27S HAZLEHURST FAIR 56 35 45 N7 30.23S ALMA SUNNY 56 34 43 NW8 30.23R WAYCROSS SUNNY 60 38 44 N8 30.23S JESUP FAIR 57 39 51 N6 30.21F BAXLEY FAIR 55 37 50 N6 30.22S BRUNSWICK SUNNY 59 41 51 NW5 30.20F SAINT SIMONS SUNNY 57 34 41 N6 30.19S $$ SCZ027-028-034-036>038-045-046-048>050-GAZ119-141-021700- ...LAKE AND SUPPLEMENTAL COASTAL OBSERVATIONS... STATION/POSITION TIME TEMP WIND PRES WAVE SWELL AIR SEA DIR/SP/G HT/PER HT/PER/DIR (UTC) (F) (DEG/KT/KT) (MB) (FT/S) (FT/S/D) WINYAH BAY NOT AVBL LAKE MURRAY 1520 52 CALM / 1 1022.7R ACE BASIN NERRS 1445 51 10/ 3 1022.0 FORT PULASKI 1548 52 63 360/ 8/ 10 1022.3S SAPELO ISLAND 1500 53 340/ 11 1023.0 $$ ANZ835-935-AMZ111-154-330-350-352-354-370-450-454-472-021700- ...C-MAN AND BUOY OBSERVATIONS... STATION/POSITION TIME TEMP WIND PRES WAVE SWELL AIR SEA DIR/SP/G HT/PER HT/PER/DIR (UTC) (F) (DEG/KT/KT) (MB) (FT/S) (FT/S/D) BUOY 41004 1550 61 74 360/ 12/ 16 1020.1R 3/ 9 2/140/ 9 BUOY 41008 1550 54 65 320/ 12/ 14 1021.8R 3/10 2/130/10 FOLLY BEACH CMAN 1500 52 10/ 10/ 13 1022.1R CAPERS NEARSHORE 1508 52 63 20/ 16/ 19 1021.2R FRIPP NEARSHORE 1508 51 63 350/ 12/ 16 1021.6R STATION/POSITION TIME TEMP WIND PRES WAVE SWELL AIR SEA DIR/SP/G HT/PER HT/PER/DIR (UTC) (F) (DEG/KT/KT) (MB) (FT/S) (FT/S/D) 5E ST. MARYS GA 1530 67 N/A 3/ 5 FRYING PAN BUOY 1550 57 75 10/ 12/ 17 1020.0S 5/ 6 2/160/ 8 BUOY 41025 1550 56 76 10/ 12/ 17 1018.7F 4/ 8 3/170/ 8 CAPE LOOKOUT NC 1500 51 360/ 12/ 14 1019.4R BUOY 41002 1550 71 74 310/ 12/ 14 1017.6F 5/ 8 5/150/ 8 BUOY 41010 NOT AVBL ST AUGUSTINE FL 1600 57 66 360/ 14/ 16 1023.4R $$

USA.gov is the U.S. government's official web portal to all federal, state and local government web resources and services.